Temperature
16 16 15 15 15 14 14 14 13 13 13 13 13 12 12 11 11 10 10 10 9 9 9 9 8 8 8 8 7 7 7 6 6 6 6 5 5 4 4 3 3 3 2
16 15 15 15 14 14 14 13 13 13 13 13 12 12 12 11 11 11 10 10 9 9 9 8 8 8 8 7 7 7 6 6 5 5 5 5 4 4 3 3 2 2 1
15 15 15 14 14 14 14 13 13 13 12 12 12 12 11 11 11 10 10 10 9 9 8 8 8 8 7 7 7 7 6 6 5 5 4 4 4 3 3 2 2 1 1
15 14 14 14 14 14 14 13 13 12 12 12 12 12 11 11 10 10 10 9 9 8 8 8 8 7 7 7 7 6 6 5 5 4 4 3 3 3 2 2 2 1 0
14 14 14 14 14 13 13 13 12 12 12 12 12 11 11 10 10 10 9 9 9 8 8 8 7 7 7 7 6 6 5 5 4 4 3 3 2 2 1 1 0 0 -0
14 14 14 14 13 13 13 13 12 12 12 11 11 11 11 10 10 10 9 9 8 8 8 8 7 7 7 6 6 5 5 4 4 3 3 2 2 1 1 -0 -1 -1 -1
13 13 13 13 13 13 13 12 12 12 11 11 11 11 10 10 10 9 9 9 8 8 8 8 7 7 6 6 5 5 4 4 3 3 2 2 1 0 -0 -1 -1 -1 -2
13 13 13 13 13 13 12 12 12 12 11 11 11 11 10 10 10 9 9 8 8 8 8 7 7 7 6 6 5 5 4 4 3 2 2 1 1 -0 -1 -1 -2 -2 -2
12 13 13 13 13 12 12 12 12 11 11 11 10 10 10 10 9 9 8 8 8 8 7 7 7 6 6 5 5 4 4 3 2 2 1 1 0 -1 -1 -2 -2 -3 -3
12 13 13 13 12 12 12 12 11 11 11 11 10 10 10 9 9 9 8 8 8 7 7 7 6 5 5 4 4 4 3 3 2 1 1 0 -0 -1 -1 -2 -3 -3 -4
12 12 12 12 12 12 11 11 11 11 10 10 10 9 9 9 9 8 8 8 7 7 7 6 6 5 5 4 4 3 2 2 1 1 0 -0 -1 -1 -2 -3 -3 -4 -5
11 11 12 12 11 11 11 10 10 10 10 9 9 9 9 9 8 8 8 7 7 7 6 6 5 5 4 4 3 2 2 1 1 1 0 -0 -1 -2 -2 -3 -4 -4 -5
11 11 11 11 11 10 10 10 10 9 9 9 9 9 8 8 8 8 7 7 7 6 6 5 5 4 4 3 2 2 1 1 1 0 -1 -1 -2 -2 -3 -4 -4 -5 -5
10 10 10 10 10 10 9 9 9 9 9 9 9 8 8 8 7 7 7 6 6 6 5 5 4 4 3 2 2 1 1 0 -0 -1 -1 -2 -2 -3 -4 -4 -5 -5 -5
9 9 9 9 9 9 9 9 9 9 9 9 9 9 8 8 7 7 7 6 6 5 5 4 4 3 2 2 1 1 0 -0 -1 -1 -2 -2 -3 -4 -4 -5 -5 -6 -6
9 9 8 8 8 8 8 8 8 8 8 8 8 8 8 8 7 7 6 6 5 5 4 4 3 3 2 1 1 0 -0 -1 -1 -2 -2 -3 -4 -4 -5 -5 -6 -6 -7
9 9 8 8 8 8 8 8 8 7 7 7 7 7 7 7 6 6 6 5 5 4 4 3 3 2 2 1 1 0 -0 -1 -2 -2 -3 -4 -4 -5 -5 -6 -6 -7 -7
8 8 8 8 8 8 8 8 8 8 7 7 7 6 6 6 6 5 5 5 4 4 3 3 2 2 1 1 0 -0 -1 -1 -2 -3 -3 -4 -5 -5 -6 -6 -7 -7 -7
8 8 8 8 7 7 7 7 7 7 7 7 6 6 5 5 5 5 4 4 4 3 3 2 2 1 1 0 -0 -1 -1 -2 -3 -3 -4 -4 -5 -6 -6 -7 -7 -7 -7
7 7 7 7 7 7 7 7 7 7 7 6 6 6 5 5 4 4 4 4 3 3 2 2 1 1 0 -0 -1 -1 -2 -2 -3 -4 -4 -5 -5 -6 -6 -7 -7 -7 -8
6 6 7 7 7 7 7 7 7 7 6 6 6 5 5 5 5 4 4 3 3 2 2 1 1 0 -0 -1 -1 -2 -2 -3 -3 -4 -4 -5 -6 -6 -7 -7 -7 -8 -8
6 6 6 6 7 6 7 7 7 6 6 6 5 5 4 4 4 3 3 2 2 2 1 1 0 -0 -1 -1 -2 -2 -3 -3 -4 -4 -5 -5 -6 -6 -7 -7 -8 -8 -8
6 6 6 6 6 6 6 6 6 6 6 5 5 4 4 4 3 3 2 2 1 1 1 0 -0 -1 -1 -2 -2 -3 -3 -3 -4 -5 -5 -6 -6 -7 -7 -8 -8 -8 -8
5 6 6 6 5 5 6 5 5 5 5 5 5 4 4 3 3 2 2 1 1 1 0 -0 -1 -1 -2 -2 -3 -3 -3 -4 -4 -5 -5 -6 -6 -7 -7 -8 -8 -8 -9
5 5 5 5 5 5 5 5 5 5 5 4 4 4 3 3 2 2 1 1 1 0 -0 -1 -1 -2 -2 -3 -3 -3 -4 -4 -5 -5 -6 -6 -7 -7 -7 -8 -8 -9 -9
5 5 5 5 5 5 5 5 4 4 4 4 3 3 3 2 2 1 1 1 0 -0 -1 -1 -2 -2 -3 -3 -3 -4 -4 -4 -5 -5 -6 -6 -7 -7 -8 -8 -8 -9 -9
Wind_Speed
21 20 19 19 18 17 16 17 16 13 14 14 15 14 14 13 12 12 11 11 11 9 8 9 8 6 5 4 4 3 3 4 5 3 2 1 1 2 4 5 7 8 9
18 18 19 18 18 18 17 16 15 15 14 14 13 14 14 13 13 13 13 12 12 11 10 9 8 6 6 5 4 5 4 4 4 4 2 2 2 2 2 3 5 7 9
15 17 17 17 18 18 17 16 15 15 14 13 13 14 14 13 13 13 12 12 12 11 10 10 9 8 7 5 5 5 4 3 3 3 3 1 1 1 2 3 4 5 8
14 15 17 17 17 17 16 15 15 15 14 14 14 14 13 13 12 12 11 11 10 9 9 10 10 10 10 8 6 5 4 3 2 2 2 2 2 2 1 3 4 3 5
13 14 15 15 14 14 14 15 14 13 14 13 13 12 12 11 11 12 11 11 10 9 8 9 9 10 10 8 6 6 5 4 3 2 2 1 2 2 2 2 4 4 5
13 13 12 13 13 14 14 14 14 13 13 13 13 13 13 11 14 17 14 10 10 10 9 8 7 8 8 9 8 8 8 6 5 3 3 3 4 3 2 2 2 3 4
11 11 11 12 13 13 13 13 14 14 13 13 13 13 13 13 17 18 17 11 10 10 9 8 6 6 8 6 7 7 6 6 6 5 4 5 4 4 2 2 2 3 4
10 10 11 12 12 12 13 14 14 12 13 13 13 13 12 12 18 18 17 11 9 9 9 9 8 7 7 8 6 5 3 3 3 3 4 4 3 2 3 2 3 2 3
10 11 11 12 12 12 13 13 11 11 11 11 12 12 12 12 17 18 17 9 8 8 7 8 8 7 10 10 7 6 3 1 1 2 2 1 0 0 1 2 1 2 4
10 10 10 11 12 13 13 11 10 10 11 11 10 11 12 12 16 19 18 9 8 7 6 6 9 9 11 11 8 7 5 3 2 2 2 2 3 2 2 1 1 1 2
8 8 9 10 11 11 10 10 11 10 11 10 10 9 9 12 16 19 18 10 9 8 7 5 5 10 11 11 8 5 6 5 4 3 2 1 2 1 1 1 0 1 2
8 9 9 10 9 10 11 10 11 12 12 11 10 8 6 9 12 15 18 14 12 9 7 6 6 11 10 10 6 6 7 6 4 3 2 1 0 1 1 2 3 3 3
9 9 9 9 9 11 12 13 11 11 11 10 10 9 7 6 8 14 16 16 14 8 7 10 11 12 10 7 8 9 7 4 3 2 2 1 1 1 0 1 2 4 5
10 10 10 10 10 10 10 10 11 11 11 11 11 10 9 8 7 8 9 10 12 10 9 11 13 12 8 7 7 5 3 3 3 2 1 1 0 0 0 1 1 2 3
10 10 10 10 10 10 8 8 9 9 12 13 11 11 12 11 11 15 13 10 9 10 10 7 5 5 4 4 3 3 3 3 2 2 2 1 0 1 1 1 1 1 2
10 11 9 9 9 9 9 7 6 8 12 13 14 13 10 13 19 18 17 17 18 19 11 7 6 6 5 5 4 3 2 2 2 2 2 1 0 0 1 2 1 1 3
11 11 9 9 9 10 10 10 9 8 11 12 15 16 16 20 21 20 19 19 19 16 7 7 6 6 5 5 4 3 3 2 2 2 2 1 1 0 1 1 2 2 3
10 11 11 9 10 10 10 10 10 11 10 7 9 16 20 21 21 21 21 16 10 7 6 7 6 6 5 5 4 3 3 3 2 2 2 1 1 1 1 1 2 3 3
10 9 9 9 9 9 10 10 10 11 10 10 9 10 16 19 19 20 17 8 9 7 6 6 6 6 5 5 4 4 4 3 3 2 2 2 1 1 1 2 2 4 3
9 12 11 10 10 10 10 11 11 11 11 11 10 10 11 10 10 9 6 6 7 7 7 6 6 6 5 5 5 4 4 3 3 2 2 2 1 1 1 2 2 2 3
9 11 13 11 10 10 11 11 11 11 11 10 9 11 15 10 10 9 7 6 7 7 7 6 6 6 5 5 5 5 4 3 3 3 2 2 2 1 1 1 2 2 3
10 10 10 10 10 10 11 10 11 11 12 12 10 11 15 8 8 8 7 6 5 5 6 6 6 5 5 6 6 5 5 4 4 3 3 2 2 1 1 1 2 2 3
10 11 10 9 10 13 12 10 11 11 11 11 11 10 9 8 7 7 7 7 6 6 6 6 6 5 5 6 6 6 5 5 5 5 4 3 2 2 1 2 2 2 3
11 11 12 11 11 11 11 11 11 11 11 11 10 10 9 8 8 8 7 7 6 6 6 6 6 7 7 6 6 6 5 5 6 6 5 4 3 2 2 1 2 3 3
11 11 11 11 11 11 11 11 11 11 11 10 10 10 9 9 8 8 7 7 7 6 7 7 7 7 8 8 7 6 7 7 6 5 5 4 3 2 2 2 2 2 2
11 12 11 10 11 11 11 12 11 11 11 10 9 9 9 9 8 8 7 7 7 6 6 6 7 8 8 7 7 7 7 7 6 5 5 4 3 2 2 2 2 2 2
Wind_Direction
195 194 193 193 194 191 193 195 196 192 189 189 191 192 192 191 189 191 193 186 192 193 187 190 196 184 182 185 179 178 184 177 221 262 253 268 262 274 292 283 283 286 295
194 191 192 191 189 190 194 194 191 191 191 190 187 189 192 192 191 193 194 191 193 194 191 188 191 183 186 184 184 192 194 188 197 242 260 262 255 270 288 296 297 295 293
189 190 189 188 188 191 193 190 188 188 187 186 185 189 192 191 191 194 194 193 193 193 189 189 188 182 193 191 190 197 194 182 183 208 245 252 270 303 306 301 303 295 301
185 188 189 189 189 190 189 187 186 185 184 185 187 189 188 187 189 190 189 188 188 188 187 188 189 190 197 194 194 195 179 174 177 203 243 263 271 295 300 292 305 304 306
183 187 191 188 184 183 183 184 182 182 184 183 182 183 183 184 188 184 184 183 182 182 182 187 190 190 193 188 185 181 172 176 182 205 235 267 271 291 280 273 292 308 298
183 187 184 180 179 181 181 179 178 179 178 177 180 181 182 186 180 178 179 180 179 180 181 182 181 181 183 183 182 177 174 178 190 194 216 240 256 251 247 284 292 323 304
181 180 177 176 178 179 175 175 177 178 175 177 180 179 182 181 174 174 175 175 176 179 178 175 172 177 173 174 177 173 183 191 186 184 206 227 232 227 217 249 259 270 270
175 176 175 173 174 172 172 176 177 174 175 177 178 177 176 175 169 170 168 170 170 173 174 174 173 171 171 163 155 156 164 184 193 190 202 221 219 209 200 216 242 281 287
178 178 175 172 169 169 173 174 170 168 170 173 172 172 172 171 168 165 160 165 162 165 165 165 165 165 163 155 153 158 159 169 142 151 146 130 69 278 110 79 20 349 314
184 179 172 169 168 171 172 167 162 163 166 163 164 169 169 169 167 164 158 160 159 157 150 157 164 163 163 162 163 166 177 186 144 114 75 60 52 46 57 88 176 292 307
171 163 162 165 166 164 161 159 156 156 154 155 154 157 162 164 164 164 162 165 164 159 159 162 167 162 162 166 165 172 177 154 143 136 117 87 55 37 14 2 264 194 236
157 157 158 159 157 155 153 155 154 153 152 151 147 145 149 155 160 166 166 163 158 158 162 161 157 155 155 155 155 147 137 126 122 121 120 130 177 294 315 327 318 307 271
154 154 153 153 153 155 156 156 155 156 157 157 156 156 152 148 154 157 158 154 149 147 148 147 145 144 140 139 136 133 128 124 127 135 170 206 231 240 337 349 340 340 328
158 155 153 153 153 153 155 159 160 162 160 159 160 159 154 152 151 151 151 145 139 132 130 133 131 128 122 123 126 122 119 136 142 161 170 152 104 79 29 357 337 341 335
161 156 154 153 153 152 151 159 161 166 167 164 165 162 161 167 170 159 153 152 150 143 131 121 120 127 127 120 116 114 115 120 122 125 132 128 80 12 352 355 351 347 322
164 160 157 154 152 150 143 124 110 138 146 151 155 155 158 155 152 152 151 148 145 143 133 140 146 149 153 153 149 140 139 145 144 141 138 145 162 290 330 340 338 321 306
171 164 157 155 155 154 150 147 135 110 114 133 145 146 145 147 148 149 147 145 146 143 136 149 154 158 159 158 158 159 165 160 147 145 151 161 169 228 317 320 321 317 307
165 160 157 157 157 156 154 150 148 145 140 127 133 141 143 144 146 146 144 137 143 141 145 154 158 159 159 160 161 159 153 145 144 152 159 169 179 203 277 298 301 303 306
162 159 154 152 152 152 148 144 142 139 139 135 128 135 140 141 142 146 145 144 153 154 151 150 153 155 155 157 157 156 156 159 158 162 170 180 190 197 260 285 296 314 319
161 156 154 152 150 149 147 145 144 143 142 144 146 145 143 139 144 149 145 140 147 150 151 151 152 152 154 155 155 154 154 156 159 164 177 190 202 208 242 273 294 299 299
157 155 151 151 154 154 152 149 148 147 148 147 148 153 155 152 153 152 150 149 151 152 152 151 151 153 152 152 154 157 160 167 172 176 182 192 198 217 248 264 283 294 302
158 158 159 157 154 152 149 147 145 145 147 144 143 148 150 140 144 147 147 146 144 145 149 149 152 156 161 163 164 165 169 175 181 182 185 190 200 217 238 264 286 298 305
155 154 153 151 148 148 144 143 145 146 146 147 148 148 149 146 147 147 146 144 141 140 141 144 147 151 152 159 165 168 175 187 188 182 183 191 202 220 238 265 281 297 304
156 155 154 150 147 147 146 145 146 146 146 148 149 149 149 147 146 144 142 140 139 139 141 145 151 156 155 156 162 171 178 184 186 187 186 190 201 216 229 256 277 286 291
155 153 152 150 149 147 145 144 145 146 147 148 148 147 144 143 143 142 141 140 139 141 143 144 147 152 155 157 162 170 174 174 178 182 182 178 188 206 222 244 265 282 289
150 147 146 145 145 146 147 147 148 148 148 147 146 146 146 146 145 143 143 142 143 144 144 145 150 154 157 161 166 170 173 176 178 177 168 163 177 202 212 232 254 270 283
Height
1397 1404 1410 1416 1422 1428 1434 1439 1445 1450 1455 1460 1464 1469 1473 1477 1481 1484 1487 1490 1493 1495 1498 1500 1502 1504 1505 1507 1507 1507 1507 1507 1505 1504 1503 1502 1500 1498 1496 1494 1492 1489 1486
1390 1397 1403 1409 1415 1421 1427 1433 1438 1444 1449 1454 1459 1463 1467 1471 1475 1478 1481 1484 1487 1489 1492 1494 1497 1499 1501 1502 1502 1503 1503 1502 1501 1500 1499 1497 1496 1494 1491 1489 1487 1484 1481
1384 1390 1397 1403 1409 1414 1421 1427 1432 1438 1443 1448 1453 1457 1461 1465 1469 1472 1476 1479 1482 1484 1487 1489 1492 1494 1495 1497 1497 1498 1498 1498 1497 1495 1494 1493 1491 1489 1487 1484 1482 1479 1476
1377 1384 1390 1395 1402 1408 1415 1421 1426 1432 1437 1442 1446 1451 1456 1460 1464 1467 1471 1474 1477 1479 1482 1484 1487 1489 1490 1492 1493 1493 1493 1493 1492 1491 1489 1488 1486 1484 1482 1479 1476 1474 1471
1371 1377 1383 1390 1396 1403 1409 1415 1421 1426 1431 1436 1441 1446 1450 1454 1458 1462 1466 1469 1472 1475 1477 1480 1482 1484 1486 1487 1488 1488 1488 1488 1487 1486 1485 1483 1481 1479 1477 1474 1472 1469 1466
1365 1371 1377 1384 1391 1397 1403 1409 1415 1421 1426 1431 1436 1441 1445 1449 1453 1457 1461 1464 1467 1470 1472 1475 1477 1479 1481 1482 1483 1483 1483 1483 1482 1481 1480 1479 1477 1475 1473 1471 1468 1465 1461
1360 1366 1372 1378 1385 1391 1398 1404 1409 1415 1421 1426 1431 1435 1440 1444 1448 1452 1456 1459 1462 1465 1468 1470 1472 1474 1476 1477 1478 1479 1479 1478 1478 1478 1476 1475 1473 1472 1470 1467 1464 1461 1459
1355 1361 1367 1373 1379 1386 1392 1398 1404 1410 1415 1421 1426 1430 1435 1439 1443 1448 1451 1455 1458 1460 1463 1465 1468 1469 1471 1472 1473 1474 1474 1474 1474 1473 1472 1471 1470 1468 1466 1464 1461 1458 1455
1351 1357 1363 1369 1375 1380 1386 1392 1399 1405 1410 1416 1421 1426 1430 1435 1439 1443 1447 1450 1453 1456 1459 1461 1463 1465 1467 1468 1469 1469 1470 1470 1470 1469 1469 1467 1466 1464 1462 1460 1457 1454 1450
1347 1353 1358 1364 1370 1376 1381 1388 1394 1400 1406 1412 1417 1422 1426 1430 1435 1439 1443 1446 1449 1452 1454 1457 1459 1461 1462 1464 1465 1465 1465 1466 1466 1465 1465 1463 1462 1460 1458 1456 1453 1451 1447
1345 1350 1355 1361 1366 1372 1378 1384 1390 1396 1402 1407 1412 1417 1422 1426 1431 1435 1438 1442 1445 1448 1450 1453 1455 1457 1459 1460 1461 1461 1462 1462 1462 1461 1460 1459 1458 1456 1454 1452 1450 1448 1445
1342 1347 1352 1357 1363 1369 1374 1380 1386 1392 1398 1403 1408 1413 1418 1422 1427 1430 1434 1438 1441 1444 1446 1449 1451 1453 1455 1456 1457 1458 1458 1458 1458 1457 1457 1455 1454 1452 1450 1449 1447 1445 1442
1339 1343 1348 1354 1360 1365 1370 1376 1382 1388 1393 1398 1404 1408 1413 1418 1423 1427 1431 1435 1438 1441 1443 1446 1448 1450 1452 1453 1454 1454 1455 1455 1454 1454 1453 1452 1450 1449 1447 1445 1444 1442 1440
1337 1341 1346 1351 1356 1362 1368 1373 1378 1383 1388 1394 1399 1404 1409 1414 1419 1423 1427 1431 1434 1437 1440 1442 1445 1447 1448 1449 1450 1451 1451 1451 1451 1451 1450 1449 1447 1445 1444 1442 1440 1438 1436
1334 1338 1343 1348 1353 1359 1365 1370 1375 1381 1386 1391 1396 1401 1405 1410 1415 1420 1423 1427 1431 1434 1436 1439 1441 1443 1444 1446 1447 1448 1448 1448 1448 1447 1446 1445 1444 1442 1441 1439 1437 1435 1432
1331 1335 1340 1345 1350 1356 1361 1368 1374 1380 1385 1391 1396 1400 1404 1409 1413 1417 1421 1425 1428 1431 1434 1436 1438 1440 1441 1442 1444 1444 1445 1445 1444 1444 1443 1442 1441 1439 1438 1436 1434 1432 1430
1328 1332 1337 1342 1347 1353 1358 1364 1369 1376 1382 1388 1393 1397 1402 1406 1410 1414 1418 1422 1425 1428 1431 1433 1435 1436 1438 1440 1440 1441 1441 1442 1441 1441 1440 1439 1438 1437 1435 1433 1432 1430 1428
1325 1330 1334 1339 1344 1350 1356 1361 1367 1371 1377 1383 1390 1395 1399 1404 1408 1412 1416 1419 1422 1425 1427 1429 1432 1434 1435 1437 1437 1438 1438 1438 1438 1438 1437 1436 1435 1434 1433 1431 1429 1428 1426
1322 1327 1332 1337 1342 1348 1354 1359 1365 1370 1376 1381 1386 1392 1397 1401 1406 1410 1413 1416 1419 1421 1424 1427 1429 1431 1432 1434 1435 1435 1436 1435 1435 1435 1434 1433 1432 1431 1430 1429 1427 1426 1424
1320 1325 1329 1335 1340 1346 1351 1357 1362 1368 1373 1379 1384 1388 1393 1398 1402 1406 1410 1413 1416 1419 1422 1424 1426 1428 1430 1431 1432 1432 1432 1433 1432 1432 1432 1431 1430 1429 1428 1427 1425 1424 1422
1317 1322 1328 1333 1338 1343 1349 1355 1360 1366 1371 1376 1382 1387 1392 1396 1399 1403 1407 1411 1414 1417 1419 1421 1423 1425 1427 1428 1429 1429 1430 1430 1430 1429 1429 1428 1428 1427 1426 1425 1423 1422 1420
1314 1319 1325 1330 1336 1341 1347 1353 1358 1364 1369 1374 1380 1385 1390 1394 1398 1402 1405 1409 1412 1415 1417 1419 1421 1423 1424 1425 1426 1426 1427 1427 1427 1427 1426 1426 1425 1424 1424 1423 1422 1420 1418
1312 1317 1323 1329 1334 1340 1345 1351 1357 1362 1367 1373 1378 1382 1387 1392 1396 1400 1403 1406 1409 1412 1414 1416 1418 1420 1421 1422 1423 1424 1424 1424 1425 1424 1424 1423 1423 1422 1421 1421 1420 1418 1416
1310 1315 1320 1326 1332 1337 1343 1349 1354 1360 1366 1371 1376 1380 1385 1390 1394 1398 1401 1404 1407 1410 1412 1414 1416 1417 1419 1420 1421 1421 1422 1422 1422 1422 1421 1421 1421 1420 1419 1419 1418 1416 1415
1307 1313 1318 1324 1330 1335 1341 1347 1353 1358 1363 1369 1374 1378 1383 1387 1392 1395 1399 1402 1405 1407 1409 1411 1413 1415 1416 1417 1418 1419 1419 1419 1419 1419 1419 1419 1418 1418 1418 1417 1416 1415 1414
1305 1311 1317 1323 1328 1334 1339 1345 1351 1356 1362 1367 1372 1377 1381 1385 1389 1393 1397 1400 1402 1405 1407 1409 1411 1412 1413 1414 1415 1416 1417 1417 1417 1417 1417 1417 1416 1416 1416 1415 1414 1413 1412